SCP
0 0 0 0 0 0 0 0 0 0 0 0 0 0 0 0 0 0 0 0 0 0 0 0 0 0 0 0 0 0 0 0 0 0 0 0 0 0
0 0 0 0 0 0 0 0 0 0 0 0 0 0 0 0 0 0 0 0 0 0 0 0 0 0 0 0 0 0 0 0 0 0 0 0 0 0
0 0 0 0 0 0 0 0 0 0 0 0 0 0 0 0 0 0 0 0 0 0 0 0 0 0 0 0 0 0 0 0 0 0 0 0 0 0
0 0 0 0 0 0 0 0 0 0 0 0 0 0 0 0 0 0 0 0 0 0 0 0 0 0 0 0 0 0 0 0 0 0 0 0 0 0
0 0 0 0 0 0 0 0 0 0 0 0 0 0 0 0 0 0 0 0 0 0 0 0 0 0 0 0 0 0 0 0 0 0 0 0 0 0
0 0 0 0 0 0 0 0 0 0 0 0 0 0 0 0 0 0 0 0 0 0 0 0 0 0 0 0 0 0 0 0 0 0 0 0 0 0
0 0 0 0 0 0 0 0 0 0 0 0 0 0 0 0 0 0 0 0 0 0 0 0 0 0 0 0 0 0 0 0 0 0 0 0 0 0
0 0 0 0 0 0 0 0 0 0 0 0 0 0 0 0 0 0 0 0 0 0 0 0 0 0 0 0 0 0 0 0 0 0 0 0 0 0
0 0 0 0 0 0 0 0 0 0 0 0 0 0 0 0 0 0 0 0 0 0 0 0 0 0 0 0 0 0 0 0 0 0 0 0 0 0
0 0 0 0 0 0 0 0 0 0 0 0 0 0 0 0 0 0 0 0 0 0 0 0 0 0 0 0 0 0 0 0 0 0 0 0 0 0
0 0 0 0 0 0 0 0 0 0 0 0 0 0 0 0 0 0 0 0 0 0 0 0 0 0 0 0 0 0 0 0 0 0 0 0 0 0
0 0 0 0 0 0 0 0 0 0 0 0 0 0 0 0 0 0 0 0 0 0 0 0 0 0 0 0 0 0 0 0 0 0 0 0 0 0
0 0 0 0 0 0 0 0 0 0 0 0 0 0 0 0 0 0 0 0 0 0 0 0 0 0 0 0 0 0 0 0 0 0 0 0 0 0
0 0 0 0 0 0 0 0 0 0 0 0 0 0 0 0 0 0 0 0 0 0 0 0 0 0 0 0 0 0 0 0 0 0 0 0 0 0
0 0 0 0 0 0 0 0 0 0 0 0 0 0 0 0 0 0 0 0 0 0 0 0 0 0 0 0 0 0 0 0 0 0 0 0 0 0
0 0 0 0 0 0 0 0 0 0 0 0 0 0 0 0 0 0 0 0 0 0 0 0 0 0 0 0 0 0 0 0 0 0 0 0 0 0
0 0 0 0 0 0 0 0 0 0 0 0 0 0 0 0 0 0 0 0 0 0 0 0 0 0 0 0 0 0 0 0 0 0 0 0 0 0
0 0 0 0 0 0 0 0 0 0 0 0 0 0 0 0 0 0 0 0 0 0 0 0 0 0 0 0 0 0 0 0 0 0 0 0 0 0
0 0 0 0 0 0 0 0 0 0 0 0 0 0 0 0 0 0 0 0 0 0 0 0 0 0 0 0 0 0 0 0 0 0 0 0 0 0
0 0 0 0 0 0 0 0 0 0 0 0 0 0 0 0 0 0 0 0 0 0 0 0 0 0 0 0 0 0 0 0 0 0 0 0 0 0
0 0 0 0 0 0 0 0 0 0 0 0 0 0 0 0 0 0 0 0 0 0 0 0 0 0 0 0 0 0 0 0 0 0 0 0 0 0
0 0 0 0 0 0 0 0 0 0 0 0 0 0 0 0 0 0 0 0 0 0 0 0 0 0 0 0 0 0 0 0 0 0 0 0 0 0
0 0 0 0 0 0 0 0 0 0 0 0 0 0 0 0 0 0 0 0 0 0 0 0 0 0 0 0 0 0 0 0 0 0 0 0 0 0
Wind_Speed_500mb
75 73 78 78 81 82 81 75 64 36 60 66 67 64 75 88 79 70 71 70 71 70 70 64 63 65 61 58 58 59 58 51 45 41 38 36 37 40
71 71 78 83 75 70 76 71 75 69 46 55 66 66 65 80 91 84 78 75 76 75 74 73 73 68 65 65 64 62 57 52 51 48 44 41 40 40
68 72 69 76 79 77 70 65 69 76 73 61 70 67 67 73 88 88 85 80 84 82 80 79 76 75 74 72 66 61 60 58 55 53 42 38 36 39
72 70 72 70 77 74 69 65 68 76 71 72 73 77 76 77 83 95 92 88 88 87 85 81 78 77 75 73 69 68 66 65 62 51 38 39 35 36
70 72 74 72 75 78 65 63 69 72 59 77 75 77 83 83 89 97 100 100 95 90 90 86 80 80 78 78 75 73 71 68 58 51 43 40 39 33
69 68 69 76 73 74 65 66 69 69 58 73 69 87 83 89 98 101 108 102 100 97 97 93 87 86 86 83 81 79 81 73 64 53 43 36 36 25
69 64 62 70 74 63 63 64 68 63 71 66 77 86 83 88 100 103 103 110 102 102 101 100 97 94 93 92 88 87 86 73 61 51 39 37 32 22
75 67 60 64 67 64 67 67 64 64 70 70 75 80 81 87 98 102 104 105 96 97 101 106 105 101 96 93 92 85 77 67 57 44 38 35 26 22
60 69 75 75 64 62 63 62 61 64 70 71 69 77 80 78 94 102 113 119 123 118 110 99 95 93 88 80 78 73 66 61 55 42 39 30 26 27
60 65 72 70 68 63 66 68 70 68 65 66 67 69 63 64 70 81 94 115 103 100 107 103 96 88 82 74 68 61 54 53 45 39 37 31 30 33
69 66 62 63 67 65 63 63 62 58 62 65 63 67 63 65 71 86 97 105 99 90 107 94 101 85 75 69 61 55 53 46 41 41 35 32 35 35
68 63 65 60 66 62 70 66 67 62 58 61 61 71 71 79 82 76 87 108 109 84 107 100 99 97 59 62 58 51 45 42 41 36 34 34 39 37
63 69 66 66 69 68 68 67 59 50 54 60 67 63 75 80 79 80 84 99 118 96 103 113 102 100 60 64 65 56 49 45 41 37 37 39 37 36
58 64 67 73 72 77 69 69 63 56 57 59 58 61 68 78 77 76 80 90 97 106 72 109 108 109 101 57 67 66 55 47 41 37 39 35 33 34
54 63 58 67 78 83 78 63 62 62 64 65 61 62 67 73 78 76 80 81 90 82 74 45 94 91 86 76 70 72 63 52 41 43 37 32 31 31
42 50 62 56 65 63 64 60 59 59 59 58 57 55 59 61 63 66 72 75 74 58 51 60 69 54 66 38 39 58 53 33 52 45 38 34 31 30
32 34 43 48 56 60 58 53 53 54 54 51 51 50 55 55 55 60 65 69 68 64 62 59 51 51 49 46 46 42 48 38 40 41 38 32 31 29
28 35 37 43 49 54 54 54 52 51 49 50 49 53 56 56 57 60 62 62 64 62 62 64 70 69 56 43 36 47 48 38 34 37 31 28 28 29
28 33 36 40 44 46 50 52 51 50 49 50 51 60 60 60 62 65 63 69 70 67 67 67 60 53 56 48 51 44 41 38 31 28 27 27 26 26
27 30 33 35 38 42 47 52 50 52 53 55 59 64 65 67 70 68 67 68 72 73 68 54 45 40 44 49 48 46 38 29 27 24 22 21 21 22
18 23 26 29 34 41 45 47 50 54 58 62 66 69 70 71 73 72 71 68 66 64 62 55 47 38 32 30 40 41 33 27 24 21 19 16 14 15
7 13 17 23 30 37 42 47 53 57 64 68 72 74 74 75 75 71 69 70 65 60 57 53 46 39 34 32 36 34 29 21 18 16 16 16 14 7
14 18 24 28 31 35 38 44 50 55 59 65 71 74 73 75 73 68 64 60 60 59 56 53 46 40 36 33 30 27 21 15 12 10 10 12 13 16
Wind_Direction_500mb
243 241 244 246 242 242 237 238 231 222 237 247 247 251 242 231 230 227 227 224 223 223 224 216 214 220 223 223 228 232 239 244 244 254 266 280 290 293
243 243 244 242 244 244 239 237 240 240 238 255 256 254 254 241 233 226 224 224 223 223 222 222 218 221 226 228 233 238 244 247 248 256 266 280 285 289
242 244 243 241 244 241 235 242 244 241 242 247 252 264 251 247 235 227 223 220 221 222 223 225 226 225 229 233 237 242 244 247 249 253 261 273 276 283
243 242 241 243 242 242 232 245 244 240 243 242 254 253 245 245 241 230 226 221 220 221 222 224 226 230 232 234 237 242 244 246 248 248 263 270 270 265
245 245 243 242 244 234 238 244 243 247 244 242 247 252 244 234 235 229 228 225 219 219 220 223 226 230 232 235 239 245 245 250 250 247 251 263 261 246
244 246 244 242 241 233 240 244 246 242 246 257 249 248 246 244 234 225 221 218 219 216 217 220 223 228 230 232 238 242 242 244 243 243 250 251 242 219
242 246 246 242 240 241 239 235 241 240 253 246 239 245 247 240 236 226 220 216 209 212 212 214 219 223 225 231 238 240 236 242 238 242 235 235 216 200
252 236 239 240 238 238 235 239 243 240 238 240 246 251 250 252 235 226 218 206 197 206 206 207 213 215 221 226 230 231 235 235 236 229 220 212 196 187
260 253 242 240 236 234 236 241 237 242 246 249 250 249 257 256 250 232 224 218 211 207 207 204 206 212 217 218 223 227 226 225 228 220 222 199 184 202
255 262 250 251 232 236 232 236 241 240 242 245 246 254 262 265 266 257 241 218 213 208 204 201 208 210 212 216 220 221 220 223 221 228 209 177 195 211
251 255 256 236 246 244 228 229 233 234 236 243 249 256 261 261 261 241 228 217 209 209 203 208 204 204 204 208 210 210 215 218 218 210 187 179 204 210
249 252 251 253 232 235 229 221 225 232 237 241 244 247 254 256 258 259 250 227 215 202 206 204 209 204 191 204 207 209 207 208 205 192 169 191 206 210
253 242 248 239 232 232 227 226 235 234 240 237 244 243 244 246 246 244 246 233 224 214 215 208 211 204 199 195 199 205 205 202 192 175 187 201 206 209
258 250 242 236 244 240 236 231 231 233 236 237 242 243 242 240 239 237 233 224 227 227 226 207 212 207 201 183 190 197 195 189 184 185 197 199 202 207
263 251 250 243 240 243 230 227 234 235 233 231 234 235 235 235 235 228 222 221 221 223 226 226 217 210 206 208 193 188 182 184 180 196 196 199 206 210
277 258 247 244 239 239 235 233 229 225 227 232 232 230 228 223 221 221 217 213 216 207 204 204 206 205 199 200 191 177 178 179 190 192 195 203 209 214
295 264 244 231 227 221 217 217 218 222 221 222 219 215 213 210 210 211 212 211 206 188 183 185 189 180 178 169 155 166 178 180 185 191 199 208 216 224
282 261 242 229 223 219 212 210 211 212 213 211 203 201 196 195 196 193 196 199 195 175 172 167 165 162 150 141 162 172 177 179 177 189 199 207 218 227
273 256 245 234 228 218 211 208 203 199 201 197 191 189 184 183 185 178 175 170 163 161 159 157 158 160 149 150 157 169 178 180 183 190 201 210 217 232
267 255 244 235 227 219 208 199 190 188 185 183 179 180 175 173 169 165 164 161 156 151 147 145 149 156 162 159 159 168 172 181 188 198 211 222 225 229
267 247 232 224 212 203 196 187 180 177 174 172 169 169 164 164 159 155 150 148 143 141 143 146 148 152 153 150 153 159 169 179 188 197 210 220 234 245
222 216 202 201 199 194 186 177 169 166 162 162 160 158 155 152 145 140 139 141 144 146 147 145 144 148 151 152 151 155 162 171 185 197 210 222 216 201
148 159 159 162 167 169 170 168 164 158 156 152 148 145 143 140 137 139 140 145 147 144 142 141 142 145 146 146 148 150 155 165 185 205 226 227 227 234
Wind_Speed_850mb
75 73 78 78 81 82 81 75 64 36 60 66 67 64 75 88 79 70 71 70 71 70 70 64 63 65 61 58 58 59 58 51 45 41 38 36 37 40
71 71 78 83 75 70 76 71 75 69 46 55 66 66 65 80 91 84 78 75 76 75 74 73 73 68 65 65 64 62 57 52 51 48 44 41 40 40
68 72 69 76 79 77 70 65 69 76 73 61 70 67 67 73 88 88 85 80 84 82 80 79 76 75 74 72 66 61 60 58 55 53 42 38 36 39
72 70 72 70 77 74 69 65 68 76 71 72 73 77 76 77 83 95 92 88 88 87 85 81 78 77 75 73 69 68 66 65 62 51 38 39 35 36
70 72 74 72 75 78 65 63 69 72 59 77 75 77 83 83 89 97 100 100 95 90 90 86 80 80 78 78 75 73 71 68 58 51 43 40 39 33
69 68 69 76 73 74 65 66 69 69 58 73 69 87 83 89 98 101 108 102 100 97 97 93 87 86 86 83 81 79 81 73 64 53 43 36 36 25
69 64 62 70 74 63 63 64 68 63 71 66 77 86 83 88 100 103 103 110 102 102 101 100 97 94 93 92 88 87 86 73 61 51 39 37 32 22
75 67 60 64 67 64 67 67 64 64 70 70 75 80 81 87 98 102 104 105 96 97 101 106 105 101 96 93 92 85 77 67 57 44 38 35 26 22
60 69 75 75 64 62 63 62 61 64 70 71 69 77 80 78 94 102 113 119 123 118 110 99 95 93 88 80 78 73 66 61 55 42 39 30 26 27
60 65 72 70 68 63 66 68 70 68 65 66 67 69 63 64 70 81 94 115 103 100 107 103 96 88 82 74 68 61 54 53 45 39 37 31 30 33
69 66 62 63 67 65 63 63 62 58 62 65 63 67 63 65 71 86 97 105 99 90 107 94 101 85 75 69 61 55 53 46 41 41 35 32 35 35
68 63 65 60 66 62 70 66 67 62 58 61 61 71 71 79 82 76 87 108 109 84 107 100 99 97 59 62 58 51 45 42 41 36 34 34 39 37
63 69 66 66 69 68 68 67 59 50 54 60 67 63 75 80 79 80 84 99 118 96 103 113 102 100 60 64 65 56 49 45 41 37 37 39 37 36
58 64 67 73 72 77 69 69 63 56 57 59 58 61 68 78 77 76 80 90 97 106 72 109 108 109 101 57 67 66 55 47 41 37 39 35 33 34
54 63 58 67 78 83 78 63 62 62 64 65 61 62 67 73 78 76 80 81 90 82 74 45 94 91 86 76 70 72 63 52 41 43 37 32 31 31
42 50 62 56 65 63 64 60 59 59 59 58 57 55 59 61 63 66 72 75 74 58 51 60 69 54 66 38 39 58 53 33 52 45 38 34 31 30
32 34 43 48 56 60 58 53 53 54 54 51 51 50 55 55 55 60 65 69 68 64 62 59 51 51 49 46 46 42 48 38 40 41 38 32 31 29
28 35 37 43 49 54 54 54 52 51 49 50 49 53 56 56 57 60 62 62 64 62 62 64 70 69 56 43 36 47 48 38 34 37 31 28 28 29
28 33 36 40 44 46 50 52 51 50 49 50 51 60 60 60 62 65 63 69 70 67 67 67 60 53 56 48 51 44 41 38 31 28 27 27 26 26
27 30 33 35 38 42 47 52 50 52 53 55 59 64 65 67 70 68 67 68 72 73 68 54 45 40 44 49 48 46 38 29 27 24 22 21 21 22
18 23 26 29 34 41 45 47 50 54 58 62 66 69 70 71 73 72 71 68 66 64 62 55 47 38 32 30 40 41 33 27 24 21 19 16 14 15
7 13 17 23 30 37 42 47 53 57 64 68 72 74 74 75 75 71 69 70 65 60 57 53 46 39 34 32 36 34 29 21 18 16 16 16 14 7
14 18 24 28 31 35 38 44 50 55 59 65 71 74 73 75 73 68 64 60 60 59 56 53 46 40 36 33 30 27 21 15 12 10 10 12 13 16
Wind_Direction_850mb
243 241 244 246 242 242 237 238 231 222 237 247 247 251 242 231 230 227 227 224 223 223 224 216 214 220 223 223 228 232 239 244 244 254 266 280 290 293
243 243 244 242 244 244 239 237 240 240 238 255 256 254 254 241 233 226 224 224 223 223 222 222 218 221 226 228 233 238 244 247 248 256 266 280 285 289
242 244 243 241 244 241 235 242 244 241 242 247 252 264 251 247 235 227 223 220 221 222 223 225 226 225 229 233 237 242 244 247 249 253 261 273 276 283
243 242 241 243 242 242 232 245 244 240 243 242 254 253 245 245 241 230 226 221 220 221 222 224 226 230 232 234 237 242 244 246 248 248 263 270 270 265
245 245 243 242 244 234 238 244 243 247 244 242 247 252 244 234 235 229 228 225 219 219 220 223 226 230 232 235 239 245 245 250 250 247 251 263 261 246
244 246 244 242 241 233 240 244 246 242 246 257 249 248 246 244 234 225 221 218 219 216 217 220 223 228 230 232 238 242 242 244 243 243 250 251 242 219
242 246 246 242 240 241 239 235 241 240 253 246 239 245 247 240 236 226 220 216 209 212 212 214 219 223 225 231 238 240 236 242 238 242 235 235 216 200
252 236 239 240 238 238 235 239 243 240 238 240 246 251 250 252 235 226 218 206 197 206 206 207 213 215 221 226 230 231 235 235 236 229 220 212 196 187
260 253 242 240 236 234 236 241 237 242 246 249 250 249 257 256 250 232 224 218 211 207 207 204 206 212 217 218 223 227 226 225 228 220 222 199 184 202
255 262 250 251 232 236 232 236 241 240 242 245 246 254 262 265 266 257 241 218 213 208 204 201 208 210 212 216 220 221 220 223 221 228 209 177 195 211
251 255 256 236 246 244 228 229 233 234 236 243 249 256 261 261 261 241 228 217 209 209 203 208 204 204 204 208 210 210 215 218 218 210 187 179 204 210
249 252 251 253 232 235 229 221 225 232 237 241 244 247 254 256 258 259 250 227 215 202 206 204 209 204 191 204 207 209 207 208 205 192 169 191 206 210
253 242 248 239 232 232 227 226 235 234 240 237 244 243 244 246 246 244 246 233 224 214 215 208 211 204 199 195 199 205 205 202 192 175 187 201 206 209
258 250 242 236 244 240 236 231 231 233 236 237 242 243 242 240 239 237 233 224 227 227 226 207 212 207 201 183 190 197 195 189 184 185 197 199 202 207
263 251 250 243 240 243 230 227 234 235 233 231 234 235 235 235 235 228 222 221 221 223 226 226 217 210 206 208 193 188 182 184 180 196 196 199 206 210
277 258 247 244 239 239 235 233 229 225 227 232 232 230 228 223 221 221 217 213 216 207 204 204 206 205 199 200 191 177 178 179 190 192 195 203 209 214
295 264 244 231 227 221 217 217 218 222 221 222 219 215 213 210 210 211 212 211 206 188 183 185 189 180 178 169 155 166 178 180 185 191 199 208 216 224
282 261 242 229 223 219 212 210 211 212 213 211 203 201 196 195 196 193 196 199 195 175 172 167 165 162 150 141 162 172 177 179 177 189 199 207 218 227
273 256 245 234 228 218 211 208 203 199 201 197 191 189 184 183 185 178 175 170 163 161 159 157 158 160 149 150 157 169 178 180 183 190 201 210 217 232
267 255 244 235 227 219 208 199 190 188 185 183 179 180 175 173 169 165 164 161 156 151 147 145 149 156 162 159 159 168 172 181 188 198 211 222 225 229
267 247 232 224 212 203 196 187 180 177 174 172 169 169 164 164 159 155 150 148 143 141 143 146 148 152 153 150 153 159 169 179 188 197 210 220 234 245
222 216 202 201 199 194 186 177 169 166 162 162 160 158 155 152 145 140 139 141 144 146 147 145 144 148 151 152 151 155 162 171 185 197 210 222 216 201
148 159 159 162 167 169 170 168 164 158 156 152 148 145 143 140 137 139 140 145 147 144 142 141 142 145 146 146 148 150 155 165 185 205 226 227 227 234